[[{"header":{"parameterUnit":"m.s-1","parameterCategory":1,"la1":30.2991,"la2":30.254,"lo1":-89.0895,"lo2":-89.0444,"dy":0.0017,"dx":0.0017,"nx":28,"ny":28,"refTime":"2023-07-18T21:00:00:Z","depth":0,"parameterNumber":2,"parameterNumberName":"U-component_of_WINDS"},"data":[0,0,0,0,0,0,0,0,0,0,0,0,0,0,0,0,0,0,0,0,0,0,0,0,0,0,0,0,0,0,0,0,0,0,0,0,0,0,0,0,0,0,0,0,0,0,0,0,0,0,0,0,0,0,0,0,0,0,1.7164,1.7164,0,1.72,1.72,1.7201,1.7161,1.716,1.7158,1.7157,1.7197,1.7199,1.7201,0,0,0,0,0,0,0,0,0,0,0,0,0,1.7064,1.7066,1.7164,1.7164,1.7165,1.72,1.72,1.7201,1.7161,1.716,1.7158,1.7156,1.7196,1.7199,1.7202,0,0,0,0,0,0,0,0,0,0,0,0,0,1.7105,1.7067,1.7164,1.7149,1.7149,1.72,1.72,1.7201,1.7162,1.716,1.7157,1.7155,1.7195,1.7198,1.7202,1.727,0,0,1.7213,1.7215,0,0,0,0,0,0,0,0,1.7102,1.7108,1.7151,1.7151,1.715,1.7174,1.7179,1.7224,1.7162,1.7157,1.7157,1.7154,1.7191,1.7195,1.7207,1.7272,1.7274,1.7214,1.7216,1.7217,1.7219,0,0,0,0,0,0,0,1.71,1.7107,1.7178,1.7152,1.7151,1.7142,1.7145,1.7188,1.7186,1.7157,1.7154,1.7159,1.719,1.7203,1.7207,1.7274,1.7214,1.7217,1.7219,1.7221,1.7396,1.7398,0,0,0,0,0,0,1.7098,1.7104,1.7177,1.7179,1.712,1.7146,1.7149,1.7168,1.7186,1.7186,1.7161,1.7157,1.7198,1.7203,1.7208,1.7288,1.7217,1.7221,1.7223,1.7393,1.7396,1.7399,0,0,0,0,0,0,1.7096,1.7105,1.7176,1.7141,1.7149,1.715,1.7171,1.717,1.7183,1.7188,1.7188,1.7174,1.7196,1.7203,1.7254,1.7289,1.7223,1.7226,1.739,1.7394,1.7397,1.7448,0,0,0,0,0,0,1.7093,1.7104,1.713,1.7142,1.7151,1.722,1.7174,1.7172,1.7189,1.7184,1.7201,1.7202,1.7195,1.7249,1.7258,1.7293,1.7229,1.7387,1.7392,1.7396,1.7444,1.7453,1.7461,0,0,0,0,0,1.709,1.7144,1.7131,1.714,1.7183,1.7223,1.7228,1.7219,1.7192,1.7218,1.7221,1.7201,1.7284,1.7255,1.7264,1.7301,1.7385,1.7391,1.7396,1.7439,1.7451,1.7461,0,0,0,0,0,0,1.7137,1.7145,1.7131,1.7191,1.7206,1.7216,1.7248,1.7232,1.7256,1.7251,1.7239,1.7243,1.7297,1.7304,1.7272,1.7367,1.733,1.7338,1.736,1.7371,1.738,1.7377,1.7232,0,0,0,0,0,1.7154,1.7185,1.719,1.7242,1.725,1.7248,1.7265,1.7256,1.7272,1.7279,1.7286,1.7303,1.7332,1.7352,1.738,1.7445,1.7447,1.7474,1.7483,1.7491,1.7497,1.7531,1.7543,1.7417,1.7417,1.7417,0,0,1.719,1.7198,1.7219,1.7252,1.7263,1.7295,1.7254,1.729,1.7314,1.7285,1.7332,1.7338,1.7357,1.7414,1.744,1.7422,1.7533,1.7498,1.7503,1.7506,1.7538,1.7549,1.756,1.742,1.742,1.7419,0,0,1.7272,1.7281,1.7325,1.7336,1.7352,1.735,1.7361,1.7373,1.7375,1.7423,1.7401,1.743,1.7482,1.7495,1.7509,1.7594,1.7576,1.7604,1.7651,1.7683,1.7693,1.7702,1.7732,1.7742,1.7611,1.7611,1.7611,0,1.7315,1.7361,1.7349,1.7387,1.7402,1.7375,1.7419,1.7431,1.7456,1.7468,1.7447,1.751,1.752,1.758,1.7601,1.7613,1.7625,1.7602,1.7693,1.7701,1.7709,1.7737,1.7749,1.7614,1.7613,1.7613,1.7613,0,1.7413,1.7446,1.7479,1.7502,1.7521,1.7562,1.7556,1.7577,1.7566,1.7566,1.7615,1.7627,1.7656,1.7669,1.766,1.7728,1.7716,1.7694,1.7657,1.7725,1.7751,1.7761,1.7618,1.7617,1.7616,1.7615,0,0,1.7525,1.754,1.7553,1.7562,1.7578,1.7604,1.7643,1.767,1.7687,1.7706,1.7738,1.7782,1.7761,1.7777,1.7769,1.7798,1.7864,1.7773,1.7773,1.7788,1.7938,1.7953,1.7966,1.7852,1.7854,1.7856,1.7936,0,1.7606,1.7673,1.7662,1.7727,1.7757,1.7732,1.7766,1.778,1.7781,1.7807,1.7809,1.7839,1.781,1.7819,1.7847,1.785,1.7894,1.7844,1.7882,1.7884,1.7878,1.798,1.7997,1.8071,1.7946,1.7948,1.7949,0,1.7709,1.773,1.7797,1.7806,1.7819,1.7849,1.7872,1.7898,1.7913,1.7912,1.7928,1.7915,1.7955,1.7917,1.7971,1.7938,1.7953,1.7957,1.796,1.7962,1.792,1.7984,1.8095,1.8106,1.7965,1.7964,1.7963,0,1.7783,1.7827,1.7873,1.7882,1.7895,1.7917,1.7924,1.7936,1.7953,1.7974,1.7984,1.801,1.8024,1.8045,1.8039,1.8012,1.8094,1.8056,1.8094,1.8094,1.8112,1.8111,1.8226,1.8123,1.8123,1.8123,1.8123,0,1.7874,1.7916,1.7906,1.7934,1.798,1.7968,1.8014,1.8018,1.8029,1.8057,1.8038,1.8066,1.8056,1.8084,1.8079,1.8124,1.8131,1.8131,1.813,1.8133,1.8132,1.8142,1.8136,1.8126,1.8125,1.8125,1.8124,0,1.7964,1.7959,1.8006,1.8014,1.8017,1.8051,1.8058,1.8084,1.8083,1.812,1.8128,1.8127,1.8158,1.8154,1.8189,1.8186,1.8241,1.8234,1.8236,1.8234,1.8271,1.8267,1.8396,1.8412,1.83,1.8301,1.8302,0,1.8021,1.8053,1.8063,1.808,1.8088,1.8116,1.8132,1.8122,1.814,1.8159,1.8183,1.8211,1.8233,1.8284,1.8287,1.8313,1.8306,1.8349,1.831,1.8311,1.8305,1.8303,1.8306,1.8357,1.8358,1.8359,1.836,0,1.8124,1.812,1.8143,1.8166,1.8185,1.8203,1.8219,1.8234,1.8225,1.8246,1.8277,1.8294,1.8328,1.8357,1.8382,1.8389,1.8373,1.8372,1.8382,1.8385,1.8384,1.8384,1.8256,1.8369,1.8368,1.8367,1.8367,1.8367,1.8199,1.8225,1.8236,1.8262,1.8273,1.8288,1.8312,1.8314,1.8339,1.8365,1.8358,1.8392,1.8406,1.8437,1.8447,1.8474,1.8459,1.8474,1.8477,1.8481,1.8484,1.8381,1.8479,1.8479,1.8479,1.8478,1.8478,0,1.8299,1.8305,1.8329,1.8351,1.8372,1.8354,1.837,1.8389,1.8419,1.8433,1.8455,1.8489,1.8517,1.8522,1.8548,1.8568,1.8562,1.8576,1.8574,1.8575,1.8498,1.8486,1.8581,1.8581,1.8581,1.858,1.858,1.858,1.8354,1.8396,1.8393,1.8441,1.8447,1.8479,1.8489,1.8503,1.8514,1.8553,1.8575,1.8577,1.8588,1.8614,1.8639,1.864,1.865,1.8667,1.8665,1.8591,1.8581,1.8571,1.856,1.8669,1.8669,1.874,1.8741,1.8741]},{"header":{"parameterUnit":"m.s-1","parameterCategory":1,"la1":30.2991,"la2":30.254,"lo1":-89.0895,"lo2":-89.0444,"dy":0.0017,"dx":0.0017,"nx":28,"ny":28,"refTime":"2023-07-18T21:00:00:Z","depth":0,"parameterNumber":3,"parameterNumberName":"V-component_of_WINDS"},"data":[0,0,0,0,0,0,0,0,0,0,0,0,0,0,0,0,0,0,0,0,0,0,0,0,0,0,0,0,0,0,0,0,0,0,0,0,0,0,0,0,0,0,0,0,0,0,0,0,0,0,0,0,0,0,0,0,0,0,3.5083,3.5084,0,3.5188,3.5189,3.5191,3.5201,3.52,3.5199,3.5198,3.5299,3.5302,3.5306,0,0,0,0,0,0,0,0,0,0,0,0,0,3.4884,3.4887,3.5083,3.5084,3.5085,3.5188,3.5189,3.5191,3.5201,3.52,3.5199,3.5198,3.5298,3.5302,3.5306,0,0,0,0,0,0,0,0,0,0,0,0,0,3.4977,3.4888,3.5083,3.5103,3.5106,3.5188,3.5189,3.5191,3.5202,3.52,3.5198,3.5197,3.5296,3.5302,3.5307,3.5373,0,0,3.5324,3.5326,0,0,0,0,0,0,0,0,3.4972,3.4985,3.5099,3.5102,3.5105,3.518,3.5156,3.5252,3.5202,3.5165,3.5198,3.5196,3.526,3.5269,3.5292,3.5378,3.5382,3.5324,3.5328,3.533,3.5332,0,0,0,0,0,0,0,3.4966,3.498,3.5124,3.51,3.5104,3.5105,3.5116,3.5174,3.522,3.5168,3.5169,3.5182,3.5262,3.5286,3.5294,3.5384,3.5324,3.5329,3.5333,3.5335,3.5528,3.553,0,0,0,0,0,0,3.4956,3.4975,3.5121,3.5127,3.5034,3.511,3.5123,3.5158,3.522,3.5228,3.5183,3.5182,3.5278,3.5288,3.5298,3.5379,3.533,3.5335,3.5338,3.5526,3.5529,3.553,0,0,0,0,0,0,3.4952,3.4969,3.5117,3.5052,3.507,3.5115,3.5154,3.516,3.5185,3.5231,3.5238,3.5201,3.5277,3.529,3.5355,3.5382,3.5338,3.5343,3.5524,3.5527,3.553,3.5541,0,0,0,0,0,0,3.4946,3.4968,3.4995,3.5052,3.5074,3.5174,3.5156,3.5164,3.5196,3.5195,3.5249,3.5257,3.5277,3.5346,3.536,3.5389,3.5347,3.5522,3.5525,3.5529,3.5538,3.5544,3.5549,0,0,0,0,0,3.4939,3.4993,3.4996,3.5014,3.5109,3.5176,3.5188,3.5212,3.5198,3.5224,3.5254,3.5255,3.5377,3.5353,3.5368,3.5399,3.552,3.5524,3.5528,3.5536,3.5543,3.5548,0,0,0,0,0,0,3.4935,3.5001,3.5005,3.508,3.5122,3.5177,3.5212,3.5218,3.5264,3.5261,3.5287,3.5299,3.5362,3.5387,3.5359,3.5466,3.5447,3.5454,3.5447,3.5454,3.5459,3.5451,3.5352,0,0,0,0,0,3.4943,3.4994,3.5048,3.5108,3.5129,3.5167,3.5197,3.5212,3.5256,3.5273,3.5307,3.5348,3.5396,3.5426,3.5473,3.5542,3.5553,3.5571,3.5576,3.558,3.5586,3.5623,3.5631,3.5544,3.5544,3.5544,0,0,3.496,3.5002,3.5032,3.5108,3.5143,3.5193,3.5182,3.5235,3.5271,3.528,3.5344,3.537,3.5418,3.5485,3.5516,3.5508,3.5612,3.5585,3.5588,3.5592,3.5628,3.5636,3.5644,3.5547,3.5546,3.5546,0,0,3.5016,3.5053,3.5107,3.5143,3.5197,3.5221,3.5234,3.5289,3.5307,3.5372,3.538,3.5422,3.5504,3.5537,3.5564,3.5633,3.5635,3.5647,3.5673,3.5709,3.5716,3.5722,3.5745,3.5753,3.5652,3.5652,3.5652,0,3.5029,3.5107,3.5134,3.5187,3.522,3.5232,3.5286,3.5318,3.5383,3.5404,3.5394,3.5497,3.553,3.5604,3.5621,3.5643,3.5657,3.564,3.5713,3.572,3.5726,3.5748,3.5757,3.5653,3.5653,3.5653,3.5653,0,3.5119,3.5173,3.521,3.5275,3.5311,3.5364,3.5397,3.5431,3.5442,3.5467,3.5532,3.5572,3.5626,3.5645,3.5656,3.5721,3.5714,3.5708,3.5689,3.5735,3.5756,3.5765,3.5655,3.5655,3.5654,3.5654,0,0,3.5175,3.5255,3.5268,3.5298,3.5358,3.5398,3.5451,3.5507,3.5534,3.5578,3.5621,3.569,3.5686,3.5717,3.5732,3.5763,3.5813,3.5754,3.5755,3.5763,3.5886,3.5889,3.5899,3.5816,3.5817,3.5819,3.5882,0,3.5237,3.5335,3.536,3.5441,3.549,3.5503,3.5548,3.5589,3.5613,3.5656,3.5682,3.5731,3.5722,3.574,3.5773,3.5801,3.5838,3.5796,3.5854,3.5856,3.5842,3.591,3.5914,3.5972,3.589,3.5892,3.5893,0,3.5322,3.5371,3.5458,3.5511,3.5533,3.5574,3.5626,3.5668,3.5713,3.5729,3.5764,3.5775,3.5828,3.5807,3.5879,3.585,3.5875,3.5892,3.5895,3.5901,3.5877,3.5917,3.5991,3.5999,3.5906,3.5905,3.5904,0,3.5353,3.544,3.5503,3.5528,3.5592,3.562,3.5648,3.5692,3.5723,3.5768,3.5789,3.5838,3.5865,3.5902,3.5926,3.5909,3.5996,3.5977,3.6008,3.6007,3.6025,3.6023,3.6103,3.6043,3.6042,3.6042,3.6042,0,3.5419,3.5471,3.5518,3.5556,3.5615,3.5643,3.5699,3.5726,3.5766,3.5808,3.5821,3.586,3.589,3.5932,3.5951,3.6007,3.6019,3.6031,3.6035,3.603,3.6028,3.6046,3.6042,3.6045,3.6044,3.6044,3.6043,0,3.5463,3.5497,3.5566,3.5622,3.5637,3.5677,3.5724,3.576,3.5786,3.5839,3.5853,3.5892,3.5942,3.597,3.6033,3.6045,3.6108,3.611,3.6093,3.6095,3.6124,3.6121,3.6217,3.6231,3.6162,3.6163,3.6163,0,3.5503,3.5544,3.5604,3.5635,3.5664,3.5713,3.5745,3.5774,3.5807,3.5862,3.5891,3.5943,3.5986,3.6066,3.6098,3.6146,3.6149,3.6179,3.6156,3.6148,3.6148,3.6145,3.6148,3.6183,3.6183,3.6184,3.6184,0,3.5569,3.5584,3.5632,3.5685,3.5725,3.5768,3.581,3.5834,3.5869,3.5905,3.5958,3.5992,3.6057,3.6107,3.6158,3.6183,3.6189,3.6192,3.6201,3.6196,3.6184,3.619,3.6103,3.6189,3.6189,3.6188,3.6188,3.6188,3.5611,3.5648,3.5697,3.5749,3.5785,3.5824,3.5862,3.5892,3.5938,3.5995,3.6008,3.6064,3.6106,3.6175,3.6202,3.6245,3.6238,3.6252,3.6256,3.6259,3.6259,3.6178,3.6254,3.6254,3.6254,3.6253,3.6253,0,3.5677,3.571,3.5758,3.5818,3.5859,3.5864,3.5911,3.5944,3.5994,3.6034,3.6077,3.6137,3.6186,3.6223,3.6272,3.6299,3.6303,3.6311,3.6309,3.6314,3.6263,3.6249,3.6307,3.6307,3.6307,3.6307,3.6307,3.6307,3.5717,3.5779,3.5799,3.5878,3.5909,3.5966,3.5992,3.6028,3.6061,3.6129,3.617,3.6195,3.6233,3.6286,3.633,3.6339,3.6356,3.6364,3.6373,3.6324,3.6318,3.6312,3.63,3.6368,3.6368,3.6421,3.6422,3.6422]}]]